Location: Liberec
(50.7830°N, 15.0500°E)
Time: 01:55:27
(UTC+01:00)

ISS - Pass Details

Date: 04 October 2020
Orbit: 417 x 420 km, 51.6° (Epoch: 25 October)

Event Time Altitude Azimuth Distance (km) Brightness Sun altitude
Rises 20:20:19 0° 283° (WNW) 2,369 1.8 -18.1°
Reaches altitude 10° 20:22:50 10° 264° (W) 1,502 0.1 -18.5°
Maximum altitude 20:25:14 18° 218° (SW) 1,095 -1.4 -18.8°
Enters shadow 20:26:34 15° 189° (S) 1,234 -1.5 -19.0°
